GW2711 Weather Reports


Display with metric or nautical units.
time (UTC)temp
F
wind
direction
speed
MPH
gust
MPH
rain 1hr
in
rain 24hr
in
rain mn
in
humidity
%
barometer
mb
20260505055033 43 332 3.0 8.0 0.02 0.06 0.06 88 1013.6
20260505054553 43 322 5.0 8.0 0.02 0.06 0.06 89 1013.5
20260505054034 43 296 5.0 9.0 0.02 0.06 0.06 89 1013.4
20260505053534 43 295 7.0 10.0 0.02 0.06 0.06 90 1013.5
20260505053048 43 270 8.0 10.0 0.02 0.05 0.05 89 1013.6
20260505052533 43 296 8.0 10.0 0.02 0.05 0.05 89 1013.6
20260505052034 43 295 8.0 11.0 0.02 0.05 0.05 89 1013.5
20260505051547 44 301 8.0 13.0 0.03 0.05 0.05 89 1013.5
20260505051031 44 298 9.0 13.0 0.04 0.05 0.05 89 1013.7
20260505050533 44 286 9.0 13.0 0.05 0.05 0.05 88 1013.6
20260505041545 45 246 3.0 10.0 0.02 0.02 0.02 82 1013.3
20260505041034 46 246 6.0 10.0 0.01 0.01 0.01 81 1013.3
20260505040536 46 251 6.0 11.0 0.00 0.00 0.00 79 1013.4
20260505040056 47 270 8.0 11.0 0.00 0.00 0.00 76 1013.2
20260505035533 48 267 7.0 10.0 0.00 0.00 0.00 75 1013.2
20260505035030 48 271 3.0 6.0 0.00 0.00 0.00 74 1013.0
20260505034604 48 189 3.0 4.0 0.00 0.00 0.00 72 1012.9
20260505034033 48 189 3.0 5.0 0.00 0.00 0.00 72 1012.7
20260505033536 48 189 3.0 5.0 0.00 0.00 0.00 71 1012.7
20260505033043 48 189 4.0 5.0 0.00 0.00 0.00 74 1012.7
20260505032532 48 360 3.0 4.0 0.00 0.00 0.00 73 1012.7
20260505032029 48 360 2.0 2.0 0.00 0.00 0.00 73 1012.7
20260505031549 48 360 1.0 2.0 0.00 0.00 0.00 73 1012.7
20260505031030 48 360 1.0 2.0 0.00 0.00 0.00 72 1012.7
20260505030537 48 360 1.0 3.0 0.00 0.00 0.00 72 1012.7
20260505030054 47 360 2.0 3.0 0.00 0.00 0.00 71 1012.7
20260505025535 47 360 2.0 3.0 0.00 0.00 0.00 71 1012.6
20260505025034 48 360 2.0 4.0 0.00 0.00 0.00 71 1012.5
20260505024549 48 360 3.0 5.0 0.00 0.00 0.00 68 1012.4
20260505024034 48 360 2.0 11.0 0.00 0.00 0.00 68 1012.3
20260505023533 48 360 5.0 11.0 0.00 0.00 0.00 67 1012.2
20260505023048 48 331 6.0 9.0 0.00 0.00 0.00 68 1012.3
20260505022534 48 33 1.0 2.0 0.00 0.00 0.00 69 1012.2
20260505022032 48 0 0.0 4.0 0.00 0.00 0.00 66 1012.2
20260505021550 48 33 0.0 4.0 0.00 0.00 0.00 65 1012.1
20260505021034 49 325 1.0 4.0 0.00 0.00 0.00 66 1012.2
20260505020536 49 44 1.0 6.0 0.00 0.00 0.00 65 1012.3
20260505020054 49 37 3.0 6.0 0.00 0.00 0.00 66 1012.3
20260505015534 49 57 4.0 6.0 0.00 0.00 0.00 65 1012.2
20260505015033 49 40 1.0 11.0 0.00 0.00 0.00 60 1012.1
20260505014549 49 32 5.0 19.0 0.00 0.00 0.00 58 1012.1
20260505014036 50 304 12.0 19.0 0.00 0.00 0.00 62 1012.1
20260505013533 50 321 9.0 20.0 0.00 0.00 0.00 60 1012.1
20260505013047 51 267 11.0 20.0 0.00 0.00 0.00 58 1012.2
20260505012533 52 277 14.0 19.0 0.00 0.00 0.00 54 1012.0
20260505012038 53 290 13.0 17.0 0.00 0.00 0.00 48 1011.8
20260505011548 54 306 13.0 16.0 0.00 0.00 0.00 47 1011.7
20260505011107 54 321 9.0 12.0 0.00 0.00 0.00 47 1011.4
20260505010535 54 312 8.0 12.0 0.00 0.00 0.00 46 1011.3
20260505010110 54 318 7.0 11.0 0.00 0.00 0.00 47 1011.2
20260505005533 54 310 8.0 11.0 0.00 0.00 0.00 45 1011.1
20260505005033 54 276 4.0 6.0 0.00 0.00 0.00 47 1011.2
20260505004558 54 296 4.0 7.0 0.00 0.00 0.00 46 1011.1
20260505004036 54 269 5.0 12.0 0.00 0.00 0.00 46 1011.2
20260505003535 54 267 5.0 12.0 0.00 0.00 0.00 45 1011.1
20260505003051 54 264 7.0 11.0 0.00 0.00 0.00 44 1011.1
20260505002536 55 278 7.0 11.0 0.00 0.00 0.00 45 1011.3
20260505002034 55 273 8.0 18.0 0.00 0.00 0.00 43 1011.3
20260505001547 55 300 10.0 18.0 0.00 0.00 0.00 42 1011.2
20260505001035 55 310 10.0 20.0 0.00 0.00 0.00 42 1011.2
20260505000533 55 313 6.0 22.0 0.00 0.00 0.00 43 1011.0
20260505000056 55 19 17.0 22.0 0.00 0.00 0.00 43 1011.1
20260504235535 55 288 12.0 20.0 0.00 0.00 0.00 45 1011.2
20260504235033 55 281 12.0 20.0 0.00 0.00 0.00 44 1011.3
20260504234553 56 52 12.0 20.0 0.00 0.00 0.00 39 1011.3
20260504234035 57 324 12.0 26.0 0.00 0.00 0.00 38 1011.4
20260504233530 57 20 18.0 26.0 0.00 0.00 0.00 38 1011.2
20260504233050 57 17 17.0 27.0 0.00 0.00 0.00 39 1011.0
20260504232534 57 10 18.0 27.0 0.00 0.00 0.00 39 1010.8
20260504232033 57 5 16.0 26.0 0.00 0.00 0.00 38 1010.7
20260504231618 57 41 19.0 26.0 0.00 0.00 0.00 38 1010.4
20260504231033 57 13 22.0 27.0 0.00 0.00 0.00 38 1010.3
20260504230534 58 5 21.0 27.0 0.00 0.00 0.00 36 1009.9
20260504230047 59 360 19.0 26.0 0.00 0.00 0.00 34 1010.1
20260504225531 61 26 11.0 16.0 0.00 0.00 0.00 30 1009.8
20260504225033 61 360 11.0 16.0 0.00 0.00 0.00 29 1009.7
20260504224546 61 17 10.0 15.0 0.00 0.00 0.00 29 1009.7
20260504224037 61 360 12.0 16.0 0.00 0.00 0.00 29 1009.6
20260504223533 61 37 11.0 16.0 0.00 0.00 0.00 28 1009.7
20260504223051 61 53 8.0 21.0 0.00 0.00 0.00 29 1009.8
20260504222532 62 42 15.0 21.0 0.00 0.00 0.00 30 1009.7
20260504222035 62 28 12.0 23.0 0.00 0.00 0.00 28 1009.7
20260504221627 62 19 20.0 23.0 0.00 0.00 0.00 28 1009.7
20260504221030 62 11 14.0 19.0 0.00 0.00 0.00 28 1009.6
20260504220534 63 360 16.0 20.0 0.00 0.00 0.00 26 1009.5
20260504220047 63 38 13.0 20.0 0.00 0.00 0.00 27 1009.5
20260504215536 64 9 10.0 19.0 0.00 0.00 0.00 26 1009.5
20260504215036 64 20 5.0 11.0 0.00 0.00 0.00 26 1009.6
20260504214547 64 325 7.0 12.0 0.00 0.00 0.00 25 1009.6
20260504214033 64 331 4.0 12.0 0.00 0.00 0.00 25 1009.6
20260504213533 65 14 8.0 17.0 0.00 0.00 0.00 26 1009.7
20260504213044 66 5 7.0 17.0 0.00 0.00 0.00 25 1009.7
20260504212533 66 331 10.0 15.0 0.00 0.00 0.00 24 1009.7
20260504212037 66 14 8.0 13.0 0.00 0.00 0.00 24 1009.7
20260504211550 66 21 7.0 19.0 0.00 0.00 0.00 26 1009.8
20260504211034 66 153 6.0 19.0 0.00 0.00 0.00 24 1009.9
20260504210534 65 299 12.0 19.0 0.00 0.00 0.00 25 1010.0
20260504210051 65 5 9.0 17.0 0.00 0.00 0.00 26 1009.9
20260504205533 65 73 12.0 17.0 0.00 0.00 0.00 25 1009.9
20260504205034 65 360 7.0 19.0 0.00 0.00 0.00 26 1010.0
20260504204548 65 5 12.0 19.0 0.00 0.00 0.00 27 1010.1
20260504204033 66 13 13.0 23.0 0.00 0.00 0.00 26 1010.1
20260504203533 66 9 17.0 24.0 0.00 0.00 0.00 26 1010.2
20260504203046 66 5 17.0 24.0 0.00 0.00 0.00 28 1010.1
20260504202533 66 19 18.0 24.0 0.00 0.00 0.00 28 1010.1
20260504202034 65 5 17.0 21.0 0.00 0.00 0.00 26 1010.1
20260504201553 65 360 15.0 24.0 0.00 0.00 0.00 27 1010.3
20260504201035 65 5 13.0 24.0 0.00 0.00 0.00 28 1010.2
20260504200534 66 9 11.0 23.0 0.00 0.00 0.00 27 1010.1
20260504200049 66 323 4.0 19.0 0.00 0.00 0.00 24 1010.4
20260504195534 65 209 12.0 19.0 0.00 0.00 0.00 24 1010.4
20260504195033 64 182 9.0 18.0 0.00 0.00 0.00 26 1010.4
20260504194553 64 184 9.0 14.0 0.00 0.00 0.00 26 1010.7
20260504194034 64 217 3.0 11.0 0.00 0.00 0.00 25 1010.5
20260504193531 64 161 8.0 14.0 0.00 0.00 0.00 24 1010.4
20260504193049 65 173 7.0 19.0 0.00 0.00 0.00 24 1010.3
20260504192533 66 136 11.0 19.0 0.00 0.00 0.00 24 1010.2
20260504192030 67 140 7.0 18.0 0.00 0.00 0.00 24 1010.1
20260504191609 67 134 12.0 17.0 0.00 0.00 0.00 26 1010.3
20260504191033 66 197 12.0 17.0 0.00 0.00 0.00 24 1010.3
20260504190533 65 191 7.0 12.0 0.00 0.00 0.00 23 1010.3
20260504190048 65 217 8.0 11.0 0.00 0.00 0.00 23 1010.3
20260504185529 65 227 7.0 28.0 0.00 0.00 0.00 23 1010.4
20260504185030 65 121 11.0 28.0 0.00 0.00 0.00 21 1010.6
20260504184556 67 211 12.0 17.0 0.00 0.00 0.00 25 1010.5
20260504184034 65 254 6.0 11.0 0.00 0.00 0.00 24 1010.5
20260504183534 65 286 8.0 13.0 0.00 0.00 0.00 25 1010.6
20260504183051 65 246 7.0 13.0 0.00 0.00 0.00 22 1010.6
20260504182533 65 266 8.0 13.0 0.00 0.00 0.00 23 1010.7
20260504182033 65 273 8.0 13.0 0.00 0.00 0.00 23 1010.7
20260504181547 65 252 4.0 11.0 0.00 0.00 0.00 25 1010.6
20260504181033 66 254 5.0 15.0 0.00 0.00 0.00 25 1010.7
20260504180534 67 246 10.0 15.0 0.00 0.00 0.00 26 1010.9
20260504180047 66 251 9.0 15.0 0.00 0.00 0.00 27 1010.8
20260504175533 64 231 8.0 18.0 0.00 0.00 0.00 27 1010.9
20260504175033 65 254 14.0 18.0 0.00 0.00 0.00 26 1011.1
20260504174549 65 271 9.0 13.0 0.00 0.00 0.00 25 1011.1
20260504174034 66 209 7.0 15.0 0.00 0.00 0.00 25 1011.2
20260504173534 66 298 6.0 15.0 0.00 0.00 0.00 26 1011.3
20260504173049 66 268 7.0 19.0 0.00 0.00 0.00 25 1011.4
20260504172534 66 5 7.0 19.0 0.00 0.00 0.00 23 1011.4
20260504172033 66 248 9.0 15.0 0.00 0.00 0.00 24 1011.5
20260504171552 66 242 7.0 14.0 0.00 0.00 0.00 23 1011.4
20260504171034 66 261 9.0 15.0 0.00 0.00 0.00 25 1011.6
20260504170534 65 228 10.0 15.0 0.00 0.00 0.00 25 1011.6
20260504151034 62 261 13.0 17.0 0.00 0.00 0.00 28 1012.1
20260504150533 61 253 12.0 16.0 0.00 0.00 0.00 29 1012.1
20260504141035 58 248 9.0 13.0 0.00 0.00 0.00 34 1012.1
20260504140532 57 239 8.0 12.0 0.00 0.00 0.00 36 1012.0
20260504130533 49 224 9.0 13.0 0.00 0.00 0.00 42 1012.1
20260504110533 46 247 3.0 4.0 0.00 0.00 0.00 44 1012.2
20260504100533 45 242 3.0 6.0 0.00 0.00 0.00 47 1012.5
20260504081556 48 211 7.0 9.0 0.00 0.00 0.00 44 1012.9
20260504081035 48 215 6.0 10.0 0.00 0.00 0.00 43 1013.0
20260504080533 49 202 8.0 10.0 0.00 0.00 0.00 42 1013.0